Terminal Aerodrome Forecast
Issued by NWS

Home | Current Version | Previous Version | Text Only | Print | Product List | Glossary On
Versions: 1 2 3 4 5 6 7 8 9 10 11 12 13 14 15 16 17 18 19 20 21 22 23 24 25
948
FTUS43 KDLH 252023 AAA
TAFHYR
TAF AMD
KHYR 252023Z 2520/2618 24012G20KT P6SM BKN025
     FM260000 24012G19KT P6SM VCSH OVC015
     FM261000 26013G21KT P6SM -RA SCT007 OVC015=

USA.gov is the U.S. government's official web portal to all federal, state and local government web resources and services.